Content
SEND FEEDBACK

Daily
Averages
Monthly
Summary
Germany

HANAU, GERMANY


Home > Europe > Germany
Elevation: 368 feet     Latitude: 50 10N     Longitude: 008 58E

WEATHER
 
SELECT A DAY
Number of Records: 360,729;   Date Range: 7/1/96 - 7/9/14
 
SHARE

PRINT THIS DATA

[ ← Previous Day ]
WEATHER ALMANAC - JANUARY 23, 2013
[ Next Day → ]
[ °C ]   °F
Weather ElementAverageHighLow
Temperature28.6 °F30.2 °F (11:50 am)26.6 °F (11:20 pm)
Dewpoint26.5 °F28.4 °F (5:50 am)23 °F (11:20 pm)
Humidity90.4 %100 % (5:50 am)79 % (11:00 pm)
Barometer29.77 in29.84 in (11:00 pm)29.74 in (12:20 am)
Wind Speed3.2 mph5.8 mph (2:50 am)
Weather ElementAverage
Visibility2.4 mi
Wind DirectionENE (58.2 °)

Weather ElementTotal
Precipitation---
Heating Degree Days36.6 (Base 65)
Averaged from 66 records on January 23, 2013
WEATHER CONDITIONS BREAKOUT
WIND DIRECTION BREAKOUT
WEATHER BY HOUR - JANUARY 23, 2013
[ °C ]   °F
Local TimeTemperatureDewpointHumidityBarometerVisibilityWind DirectionWind SpeedGust SpeedPrecipitationEventsConditions
12:20 AM28.4 °F26.6 °F93 %29.74 in2.8 miNE (40°)3.5 mphOvercast
12:50 AM28.4 °F26.6 °F93 %29.74 in2.8 miENE (60°)2.3 mphOvercast
1:00 AM28.0 °F27.0 °F92 %29.77 in3.0 miENE (60°)2.2 mphMist
1:20 AM28.4 °F26.6 °F93 %29.74 in2.8 miNE (40°)1.2 mphOvercast
1:50 AM28.4 °F26.6 °F93 %29.74 in2.8 miNNE (30°)2.3 mphMostly Cloudy
2:00 AM28.0 °F27.0 °F92 %29.77 in3.0 miNNE (30°)2.2 mphMist
2:20 AM28.4 °F26.6 °F93 %29.74 in2.8 miNorth (10°)4.6 mphMostly Cloudy
2:50 AM28.4 °F26.6 °F93 %29.74 in2.8 miNorth (10°)5.8 mphMostly Cloudy
3:00 AM28.0 °F26.0 °F90 %29.77 in3.0 miNorth (10°)4.5 mphMist
3:20 AM28.4 °F26.6 °F93 %29.74 in2.8 miNNE (20°)3.5 mphMostly Cloudy
3:50 AM28.4 °F26.6 °F93 %29.74 inNE (50°)3.5 mphOvercast
4:20 AM28.4 °F26.6 °F93 %29.74 inNE (50°)2.3 mphOvercast
4:50 AM28.4 °F26.6 °F93 %29.74 inNE (50°)3.5 mphOvercast
5:00 AM28.0 °F26.0 °F91 %29.78 in3.0 miNE (50°)2.2 mphMist
5:20 AM28.4 °F26.6 °F93 %29.74 in2.8 miNE (50°)2.3 mphOvercast
5:50 AM28.4 °F28.4 °F100 %29.74 inENE (60°)3.5 mphOvercast
6:00 AM28.0 °F27.0 °F92 %29.77 in3.0 miENE (60°)2.2 mphMist
6:20 AM28.4 °F26.6 °F93 %29.74 in2.5 miENE (60°)3.5 mphOvercast
6:50 AM28.4 °F26.6 °F93 %29.74 in2.5 miNE (50°)3.5 mphOvercast
7:00 AM28.0 °F26.0 °F90 %29.76 in2.0 miNE (50°)4.5 mphMist
7:20 AM28.4 °F26.6 °F93 %29.74 in2.5 miENE (60°)3.5 mphOvercast
7:50 AM28.4 °F26.6 °F93 %29.74 inENE (60°)3.5 mphOvercast
8:00 AM28.0 °F26.0 °F87 %29.77 in2.0 miENE (60°)4.5 mphMist
8:20 AM28.4 °F26.6 °F93 %29.74 in1.7 miENE (60°)3.5 mphOvercast
8:50 AM28.4 °F26.6 °F93 %29.74 in1.7 miENE (60°)3.5 mphOvercast
9:00 AM28.0 °F25.0 °F85 %29.78 in2.0 miENE (60°)2.2 mphMist
9:20 AM28.4 °F26.6 °F93 %29.74 in1.7 miENE (60°)3.5 mphOvercast
9:50 AM28.4 °F26.6 °F93 %29.77 in1.9 miNE (50°)3.5 mphOvercast
10:20 AM28.4 °F26.6 °F93 %29.77 in1.7 miNE (40°)3.5 mphOvercast
10:50 AM28.4 °F26.6 °F93 %29.77 in1.7 miNE (50°)3.5 mphOvercast
11:00 AM28.0 °F26.0 °F90 %29.80 in2.0 miNE (50°)2.2 mphSnowLight Snow
11:20 AM28.4 °F26.6 °F93 %29.77 in1.6 miNE (50°)2.3 mphOvercast
11:50 AM30.2 °F28.4 °F93 %29.77 in1.6 miENE (60°)2.3 mphOvercast
12:00 PM29.0 °F27.0 °F89 %29.80 in2.0 miENE (60°)2.2 mphSnowLight Snow
12:20 PM30.2 °F28.4 °F93 %29.77 in1.6 miNE (50°)3.5 mphMostly Cloudy
12:50 PM30.2 °F26.6 °F86 %29.77 in2.2 miVariable3.5 mphSnowLight Snow
1:20 PM30.2 °F26.6 °F86 %29.77 in2.2 miNE (40°)2.3 mphMostly Cloudy
1:50 PM30.2 °F26.6 °F86 %29.77 in1.9 miNNW (330°)3.5 mphMostly Cloudy
2:00 PM30.0 °F27.0 °F82 %29.80 in2.0 miNNW (330°)4.5 mphIce Crystals
2:20 PM30.2 °F26.6 °F86 %29.77 in1.9 miNNE (20°)4.6 mphMostly Cloudy
2:50 PM30.2 °F28.4 °F93 %29.77 in1.9 miENE (60°)2.3 mphMostly Cloudy
3:00 PM30.0 °F27.0 °F85 %29.79 in2.0 miENE (60°)2.2 mphSnowLight Snow
3:20 PM30.2 °F28.4 °F93 %29.77 in1.9 miENE (60°)3.5 mphMostly Cloudy
3:50 PM30.2 °F28.4 °F93 %29.77 in1.6 miENE (60°)3.5 mphMostly Cloudy
4:20 PM30.2 °F28.4 °F93 %29.77 in1.6 miNE (50°)4.6 mphMostly Cloudy
4:50 PM30.2 °F26.6 °F86 %29.77 in1.6 miNE (50°)3.5 mphMostly Cloudy
5:00 PM29.0 °F27.0 °F89 %29.80 in2.0 miNE (50°)4.5 mphMist
5:20 PM28.4 °F26.6 °F93 %29.77 in1.6 miENE (70°)3.5 mphMostly Cloudy
5:50 PM28.4 °F26.6 °F93 %29.77 in1.7 miEast (80°)3.5 mphMostly Cloudy
6:00 PM29.0 °F26.0 °F85 %29.81 in2.0 miEast (80°)2.2 mphMist
6:20 PM28.4 °F26.6 °F93 %29.77 in1.7 miENE (70°)3.5 mphMostly Cloudy
6:50 PM28.4 °F26.6 °F93 %29.80 in2.2 miENE (70°)3.5 mphMostly Cloudy
7:00 PM28.0 °F26.0 °F86 %29.82 in2.0 miENE (60°)2.2 mphMist
7:20 PM28.4 °F24.8 °F86 %29.80 in2.2 miENE (70°)2.3 mphMostly Cloudy
7:50 PM28.4 °F24.8 °F86 %29.80 in2.2 miENE (70°)2.3 mphMostly Cloudy
8:00 PM28.0 °F25.0 °F84 %29.83 in2.0 miENE (70°)2.2 mphMist
8:20 PM28.4 °F26.6 °F93 %29.80 in2.8 miNE (40°)2.3 mphMostly Cloudy
8:50 PM28.4 °F26.6 °F93 %29.80 in3.1 miNE (50°)2.3 mphMostly Cloudy
9:00 PM28.0 °F26.0 °F87 %29.83 in3.0 miNE (50°)2.2 mphMist
9:20 PM28.4 °F26.6 °F93 %29.80 in3.1 miENE (70°)2.3 mphMostly Cloudy
9:50 PM28.4 °F24.8 °F86 %29.80 in3.1 miNNE (30°)3.5 mphMostly Cloudy
10:20 PM28.4 °F24.8 °F86 %29.80 in3.1 miNNE (20°)4.6 mphMostly Cloudy
10:50 PM28.4 °F24.8 °F86 %29.80 in3.7 miNNE (30°)4.6 mphMostly Cloudy
11:00 PM28.0 °F24.0 °F79 %29.84 in4.0 miNNE (30°)4.5 mphMist
11:20 PM26.6 °F23.0 °F86 %29.80 in3.7 miNE (40°)3.5 mphMostly Cloudy
11:50 PM26.6 °F24.8 °F93 %29.80 in3.7 miENE (60°)3.5 mphMostly Cloudy
Hourly data recorded from EDDF, located miles away from Hanau, Germany







STORIES FROM OUR PARTNERS